Location: Columbia
(38.9520°N, 92.3340°W)
Time: 12:56:39
(UTC-05:00)

Daily predictions for brighter satellites

Satellite Brightness Start Highest point End
(mag) Time Altitude Azimuth Time Altitude Azimuth Time Altitude Azimuth
COSMOS 2406 3.5 20:46:50 10° NNW 20:52:30 56° ENE 20:58:05 10° SE
Cosmos 2074 Rocket 4.1 20:47:35 10° S 20:53:44 60° E 20:59:53 10° NNE
Okean 1-7 3.6 20:49:38 10° NNW 20:53:53 62° W 20:58:09 10° S
GPS 2-05 Rocket1 4.2 20:53:54 10° SW 20:56:57 24° SSE 20:59:58 10° ESE
CZ-4 DEB 2.8 20:58:31 10° SSE 21:01:38 61° ENE 21:04:47 10° N
Abrixas rocket 3.9 20:58:45 10° W 21:01:41 27° SW 21:04:35 10° SSE
Cosmos 2278 Rocket 3.3 20:58:49 10° SSE 21:03:14 24° E 21:07:40 10° NE
Cosmos 407 Rocket 4.1 21:01:46 10° N 21:06:45 41° ENE 21:11:44 10° SE
Resurs 01 Rocket 4.3 21:04:09 10° SW 21:07:17 19° W 21:10:27 10° NW
Cosmos 1844 4.2 21:01:58 10° S 21:07:18 41° ESE 21:12:42 10° NE
Cosmos 1825 3.8 21:04:52 10° SE 21:07:26 18° E 21:10:02 10° NE
Cosmos 1844 Rocket 2.8 21:03:11 10° S 21:08:42 58° ESE 21:14:14 10° NNE
ERS-1 Rocket 3.1 21:03:54 10° SSE 21:08:50 59° ENE 21:13:48 10° N
Cosmos 1408 4.2 21:06:53 10° SE 21:09:22 17° E 21:11:50 10° NE
BREEZE-M DEB (TANK) 3.6 21:07:36 10° W 21:09:50 42° NNW 21:13:57 10° NE
Cosmos 1674 Rocket 3.9 21:06:50 10° N 21:11:10 49° E 21:15:27 10° SSE
Cosmos 1452 Rocket 4.0 21:09:40 10° SSE 21:14:28 37° E 21:19:18 10° NE
Sich 1 Rocket 4.0 21:11:41 10° SSE 21:16:04 47° E 21:20:28 10° NNE
Meteor 1-10 Rocket 4.3 21:10:17 10° N 21:16:08 71° E 21:21:48 10° SSE
Cosmos 1190 Rocket 4.0 21:15:18 10° NNW 21:20:29 68° ENE 21:25:32 11° SSE
Cosmos 1862 4.1 21:19:28 10° SSE 21:23:08 33° E 21:26:50 10° NNE
Cosmos 2082 Rocket 4.2 21:20:15 10° NNE 21:23:09 14° NE 21:26:01 10° E
USA 234 4.4 21:21:53 10° E 21:26:03 18° ESE 21:30:12 10° SSE
Meteor 2-10 Rocket 4.1 21:21:42 10° NNW 21:27:29 68° W 21:33:04 10° S
Cosmos 2341 Rocket 4.4 21:26:11 10° SSE 21:32:07 45° E 21:38:02 10° NNE
Coronas F rocket 3.7 21:32:09 10° SW 21:34:23 24° WNW 21:36:39 10° NNW
Cosmos 1184 Rocket 3.6 21:39:00 23° SE 21:40:20 32° E 21:43:21 10° NNE
Cosmos 1975 Rocket 3.9 21:36:56 10° NNE 21:40:49 31° ENE 21:42:49 21° ESE
CZ-4 SHROUD 4.1 21:41:31 25° ESE 21:42:34 32° ENE 21:45:22 10° N
Meteor 1-27 Rocket 3.6 21:39:13 10° N 21:44:48 72° E 21:49:19 15° SSE
TIMED 4.4 21:42:18 10° SSW 21:46:40 85° ESE 21:51:03 10° NNE
Cosmos 1606 2.7 21:44:03 10° N 21:48:00 78° E 21:50:38 20° SSE
Cosmos 1908 Rocket 3.5 21:44:46 10° S 21:49:09 87° E 21:53:36 10° N
Cosmos 962 Rocket 4.5 21:43:59 10° S 21:50:00 62° E 21:56:08 10° NNE
CENTAUR R/B 3.9 21:43:21 10° NW 21:50:53 47° WSW 21:58:43 10° S
Cosmos 676 Rocket 4.0 21:45:42 10° NNW 21:50:55 76° ENE 21:54:26 21° SSE
Cosmos 1782 3.5 21:47:05 10° NNW 21:51:01 53° W 21:54:56 10° S
PSLV R/B 3.4 21:50:18 35° ESE 21:51:07 46° ENE 21:53:57 10° N
deb Chang Zheng 4 3.9 21:48:51 10° N 21:53:15 70° WNW 21:57:39 10° SSW
Cosmos 1378 Rocket 3.4 21:49:53 10° N 21:54:12 72° E 21:56:50 23° SSE
Cosmos 1174 3.1 21:51:29 10° NNW 21:54:40 70° ENE 21:55:34 40° SE
Cosmos 1954 Rocket 4.0 21:51:11 10° NNW 21:56:22 65° ENE 21:59:23 25° SE
Cosmos 2084 3.1 21:53:31 10° SSW 21:57:23 90° NW 22:01:14 10° NE
Cosmos 1939 Rocket 3.6 21:54:41 12° S 21:58:04 48° W 22:01:53 10° NNW
Cosmos 2154 Rocket 4.0 21:53:53 10° S 22:00:07 84° W 22:06:21 10° N
USA 245 3.5 22:00:54 34° E 22:01:34 38° ENE 22:05:08 10° N
Atlas Centaur 2 2.7 22:01:19 10° SW 22:03:38 19° SSW 22:03:38 19° SSW
COS B Rocket 3.4 21:59:49 10° N 22:03:55 72° W 22:06:28 19° SSW
BREEZE-M DEB (TANK) 4.5 22:05:20 10° NW 22:06:16 12° N 22:07:19 10° NNE
ISS -3.3 22:03:19 10° SW 22:06:35 80° NW 22:09:50 10° NE
SL-27 R/B 4.4 22:03:37 10° NW 22:06:43 27° W 22:09:24 12° SSW
Cosmos 1238 Rocket 2.4 22:04:13 10° N 22:07:29 90° W 22:08:57 34° S
SPOT 5 3.2 22:06:18 20° S 22:10:04 76° WSW 22:15:27 10° NNW
Terra 3.3 22:09:02 19° E 22:10:13 21° ENE 22:13:44 10° NNE
MetOp-B 4.1 22:07:14 23° SSE 22:10:39 88° ENE 22:16:02 10° NNW
UNK 4.4 22:05:04 10° NNE 22:11:19 78° ESE 22:17:05 11° S
Cosmos 1295 Rocket 4.5 22:06:32 17° S 22:11:27 67° E 22:17:41 10° NNE
Cosmos 2151 Rocket 4.4 22:13:00 31° ESE 22:13:28 32° E 22:17:29 10° NNE
H-2A R/B 3.3 22:15:27 14° SSW 22:18:46 37° W 22:22:44 10° NNW
COSMOS 2487 2.4 22:16:42 10° NNW 22:20:19 82° WSW 22:21:04 54° S
Cosmos 489 Rocket 4.4 22:14:33 10° NNW 22:20:47 80° ENE 22:23:53 32° SSE
Cosmos 1023 Rocket 4.4 22:18:22 10° NNW 22:23:30 77° ENE 22:25:24 39° SSE
SL-08 RB Rocket 3.9 22:23:16 42° SE 22:24:34 58° ENE 22:29:07 10° N
APEX 3.2 22:24:54 43° S 22:26:05 72° ESE 22:30:54 10° NNE
ARGOS 3.1 22:23:56 35° SSE 22:26:13 75° ENE 22:31:34 10° N
Envisat 4.3 22:23:09 11° SSW 22:27:28 35° W 22:32:08 10° NNW
Cosmos 2366 rocket 4.1 22:26:54 33° SSE 22:29:30 55° E 22:35:38 10° NNE
ATLAS 5 CENTAUR R/B 4.1 22:24:58 10° WNW 22:29:51 25° WSW 22:34:33 11° SSW
Elektron 3 4.1 22:30:27 10° NW 22:33:26 83° NE 22:33:55 66° SE
GPS 2-05 Rocket1 4.0 22:31:23 10° WSW 22:33:43 32° SW 22:33:43 32° SW
Cosmos 1420 Rocket 4.2 22:33:43 10° SSW 22:38:56 69° WNW 22:44:09 10° NNE
IGS 5A 4.4 22:39:52 33° ENE 22:39:52 33° ENE 22:43:34 10° N
YAOGAN 6 3.7 22:41:14 31° SW 22:42:01 35° W 22:45:16 10° NNW
Cosmos 1825 4.2 22:39:38 10° SW 22:42:51 26° WNW 22:46:06 10° NNW
H-2A R/B 2.3 22:44:16 46° ESE 22:45:30 58° ENE 22:50:44 10° N
Okean 2 Rocket 4.0 22:42:49 20° SW 22:45:35 45° W 22:49:50 10° N
Cosmos 2278 Rocket 3.3 22:41:34 10° SW 22:46:59 45° WNW 22:52:25 10° N
Meteor 1-18 Rocket 4.5 22:41:33 10° N 22:47:23 58° ENE 22:48:48 46° SE
Cosmos 1833 Rocket 3.1 22:43:20 10° NNW 22:48:47 48° ENE 22:49:59 42° E
Meteor 1-14 Rocket 4.2 22:46:04 31° SSW 22:48:56 82° W 22:54:35 10° N
Cosmos 614 Rocket 3.8 22:44:24 10° NNW 22:49:30 86° ENE 22:50:29 59° SSE
Cosmos 1242 Rocket 3.4 22:47:36 10° NNW 22:51:06 44° W 22:51:25 42° WSW
Cosmos 2218 Rocket 4.1 22:52:16 30° SSW 22:55:40 81° W 23:02:07 10° N
Cosmos 1140 Rocket 4.0 22:52:18 10° NNW 22:57:16 50° WSW 22:58:42 39° SSW
SPOT 1/Viking Rocket 4.4 22:58:58 31° SSW 23:00:54 44° W 23:05:54 10° NNW
DELTA 2 DEB (DPAF) 4.0 23:03:00 77° SSW 23:03:14 81° WSW 23:07:43 10° NNW
CZ-4 R/B 4.4 22:59:45 10° N 23:04:19 54° WNW 23:06:05 33° SW
Cosmos 1812 3.7 23:00:47 10° N 23:03:35 40° NNE 23:03:35 40° NNE
Cosmos 2082 Rocket 2.1 23:02:20 10° NNW 23:08:04 89° ENE 23:08:58 65° SSE
USA 234 3.1 23:03:05 10° NE 23:09:39 79° SE 23:16:10 10° SW
Cosmos 1727 Rocket 3.9 23:06:44 10° N 23:12:55 85° W 23:14:25 55° S
Meteor 1-11 Rocket 4.4 23:17:27 39° E 23:17:27 39° E 23:22:25 10° NNE
CARTOSAT-1 3.7 23:18:48 68° WNW 23:18:48 68° WNW 23:22:46 10° NNW
CZ-4C R/B 4.3 23:22:24 42° WNW 23:22:24 42° WNW 23:25:47 10° NNW
Timation 1 Rocket 4.2 23:24:56 58° SSW 23:26:12 88° WNW 23:32:15 10° NNE
Cosmos 1536 Rocket 4.4 23:27:13 10° NNW 23:31:22 45° W 23:31:22 45° W
ISS -0.2 23:41:24 10° WNW 23:43:26 15° NNW 23:45:29 10° NNE
Cosmos 1821 Rocket 4.0 23:46:40 67° E 23:46:41 67° E 23:52:52 10° NNE
Terra 2.8 23:47:55 38° W 23:47:55 38° W 23:52:08 10° NNW
Cosmos 2285 Rocket 4.5 23:51:56 46° ENE 23:51:56 46° ENE 23:57:10 10° NNE
Meteor 1-19 Rocket 4.4 23:47:07 10° N 23:52:42 67° ENE 23:52:42 67° ENE
